Regional Weather Roundup
Issued by NWS Goodland, KS

Home | Current Version | Previous Version | Text Only | Print | Product List | Glossary Off
Versions: 1 2 3 4 5 6 7 8 9 10 11 12 13 14 15 16 17 18 19 20 21 22 23 24 25 26 27 28 29 30 31 32 33 34 35 36 37 38 39 40 41 42 43 44 45 46 47 48 49 50

000
ASUS43 KGLD 042008
RWRGLD

GOODLAND FORECAST AREA HOURLY WEATHER ROUNDUP
NATIONAL WEATHER SERVICE GOODLAND KS
100 PM MST WED MAR 04 2015

...OFFICIAL OBSERVATIONS...

CITY           SKY/WX    TMP DP  RH WIND       PRES   REMARKS
GOODLAND KS    SUNNY     27   8  44 N14G21    30.20  WCI  16
HILL CITY KS   SUNNY     31   5  33 N12G22    30.27
IMPERIAL NEB     N/A     27   7  42 NW17G23   30.21  WCI  14
MCCOOK NEB     MOSUNNY   30  11  45 NW12      30.24
AKRON CO       SUNNY     21   5  50 N9        30.14
BURLINGTON CO  SUNNY     24   7  48 N14       30.18  WCI  12
LIMON CO       MOSUNNY   15   1  53 CALM      30.13
$$

...UNOFFICIAL OBSERVATIONS...

CITY           SKY/WX    TMP DP  RH WIND       PRES   REMARKS
COLBY KS       SUNNY     28  12  50 N8G22     30.22F
GOVE KS          N/A     30  32 100 MISG        N/A
LENORA KS        N/A     28  32 100 S15         N/A  WCI  16
NORTON KS      MOSUNNY   30   9  40 N13       30.25F
SHARON SPRINGS   N/A     26  11  53 N8G15       N/A
KIT CARSON CO    N/A     21   7  55 MISG        N/A
YUMA CO          N/A     24   4  42 CALM        N/A
$$



USA.gov is the U.S. government's official web portal to all federal, state and local government web resources and services.